Tracking 22438 objects as of 25-Feb-2021
HD Live streaming from Space Station
objects crossing your sky now

FREGAT DEB

Track FREGAT DEB now!
10-day predictions


NORAD ID: 46626
Int'l Code: 2011-037MS
Perigee: 431.7 km
Apogee: 2,223.1 km
Inclination: 51.3 °
Period: 112.0 minutes
Semi major axis: 7698 km
RCS: Unknown
Launch date: July 18, 2011
Source: Commonwealth of Independent States (former USSR) (CIS)
Launch site: TYURATAM MISSILE AND SPACE COMPLEX (TTMTR)

Note: This is SATELLITE DEBRIS
aabbcc
Your satellite tracking list
Your tracking list is empty




NASA's NSSDC Master Catalog

Two Line Element Set (TLE):
1 46626U 11037MS  21054.10067918  .00567731  00000-0  79512-1 0  9994
2 46626  51.2716 313.2574 1163490 322.4007  30.0760 12.85283658 17344
Source of the keplerian elements: AFSPC